4XCWZ LLHZ-LLBG

Flight info

Callsign 4XCWZ
Flight time 0h -2m
Altitude 3000
Route CVFR
Aircraft C172/L-VD/A

Departure

Time 2026-04-25 12:45
Airport Herzliya Airport (LLHZ)

Arrival

Time 2026-04-25 12:43
Airport Ben Gurion International Airport (LLBG)
Time Latitude Longitude Altitude Speed Heading
2026-04-25 12:42 32.17874 34.83805 116 ft 0 kts 290°
2026-04-25 12:43 32.17923 34.83824 119 ft 5 kts 308°
2026-04-25 12:44 32.17931 34.83786 117 ft 5 kts 290°
2026-04-25 12:44 32.17951 34.83717 111 ft 23 kts 285°
2026-04-25 12:44 32.18237 34.82711 202 ft 87 kts 287°
2026-04-25 12:45 32.18064 34.82029 237 ft 109 kts 221°
2026-04-25 12:45 32.17283 34.82007 365 ft 115 kts 168°
2026-04-25 12:45 32.15822 34.82515 912 ft 110 kts 163°
2026-04-25 12:46 32.15077 34.82844 1006 ft 111 kts 164°
2026-04-25 12:46 32.14467 34.83334 1245 ft 108 kts 123°
2026-04-25 12:46 32.14084 34.84086 1509 ft 106 kts 126°
2026-04-25 12:46 32.13691 34.84817 1759 ft 102 kts 125°
2026-04-25 12:47 32.13324 34.85506 2021 ft 97 kts 126°
2026-04-25 12:47 32.13162 34.86263 2275 ft 102 kts 76°
2026-04-25 12:47 32.13340 34.87074 2534 ft 101 kts 79°
2026-04-25 12:47 32.13288 34.87866 2810 ft 97 kts 111°
2026-04-25 12:48 32.13110 34.88646 3085 ft 99 kts 109°
2026-04-25 12:48 32.12932 34.89428 3365 ft 99 kts 110°
2026-04-25 12:48 32.12772 34.90205 3595 ft 97 kts 111°
2026-04-25 12:48 32.12609 34.90943 3847 ft 89 kts 109°
2026-04-25 12:49 32.12483 34.91613 4072 ft 83 kts 109°
2026-04-25 12:49 32.12371 34.92230 4275 ft 72 kts 107°
2026-04-25 12:49 32.12280 34.92785 4394 ft 69 kts 109°
2026-04-25 12:49 32.12178 34.93347 4560 ft 67 kts 110°